Погода в Выучейском

Россия / Ненецкий автономный округ     67°34′10″N   49°03′19″E
темп.,
°C
ветер,
м/с
пор.,
м/с
влажн.,
%
обл.,
%
осадки,
мм/ч
давл.,
гПа
погр.,
м
21 апреля, ср
ср2100:00−1юз510791 0.0 102494
03:00−1юз598131 0.0 102474
06:000ююз5107813 0.0 1023102
09:00+2ююз61178100 0.0 1023163
12:00+3ююз5108943 0.0 1022166
15:00+2ю5109899 0.0 1021162
18:00+2ююв48100100 0.0 1019125
21:00+2ююв469098 0.0 101765
22 апреля, чт
чт2200:00+2ююв5986100 0.0 1014111
03:00+2ююв5986100 0.0 1013118
06:00+2ююв91597100 0.4 1010475
09:00+2ю81598100 0.8 1009595
12:00+3ю71499100 0.0 1008535
15:00+3ю71498100 0.0 1008533
18:00+2ю71398100 0.4 1008585
21:00+2ююз8139696 0.5 1008412
23 апреля, пт
пт2300:00+2ю81495100 0.0 1008414
03:00+2ю7139497 0.2 1008424
06:00+2юз71197100 0.7 1008393
09:00+2юз81297100 0.8 1010606
12:00+1юз81497100 0.2 1012712
15:00+2зюз10148799 0.3 1015774
18:00+2з8138660 0.0 1018671
21:000зюз5793100 0.0 1020142
24 апреля, сб
сб2400:00−1ссз119535 0.0 102110
03:000вюв4693100 0.0 1021113
06:00+1юв81484100 0.0 1020265
09:00+6ююв61382100 0.0 1018315
12:00+10ю7127350 0.0 1018562
15:00+10ю5108294 0.0 1017268
18:00+8ю598498 0.0 1017119
21:00+5ююв448199 0.0 101827
25 апреля, вс
вс2500:00+4ююв44797 0.0 101826
03:00+3ююв44805 0.0 101823
06:00+4юв4977100 0.0 1017141
09:00+7юв5764100 0.0 1015566
12:00+10вюв895490 0.0 10131567
15:00+10юв91059100 0.1 10111391
18:00+9юв71067100 0.1 1010850
21:00+7юв61082100 0.1 1008646